Regional Weather Roundup
Issued by NWS

Home | Current Version | Previous Version | Graphics & Text | Print | Product List | Glossary On
Versions: 1 2 3 4 5 6 7 8 9 10 11 12 13 14 15 16 17 18 19 20 21 22 23 24 25 26 27 28 29 30 31 32 33 34 35 36 37 38 39 40 41 42 43 44 45 46 47 48 49 50
000
ASUS45 KSLC 202210
RWRUT

UTAH REGIONAL WEATHER ROUNDUP
NATIONAL WEATHER SERVICE SALT LAKE CITY UT
400 PM MDT MON APR 20 2015

UTZ001>011-023>025-202300-

NORTHERN UTAH

CITY           SKY/WX    TMP DP  RH WIND       PRES   REMARKS
BRIGHAM CITY   SUNNY     67  21  17 SW8       29.90F
HILL AFB       NOT AVBL
LOGAN          SUNNY     67  28  23 E6        29.89F
OGDEN          SUNNY     66  26  22 NW6       29.90F
PROVO AIRPORT  MOSUNNY   68  30  24 W8        29.89F
SALT LAKE CITY MOSUNNY   69  22  16 NW12      29.89F
VERNAL         PTSUNNY   62  26  25 NE6       29.88F
WENDOVER       SUNNY     70  19  14 SE9       29.90F
HEBER CITY     SUNNY     68  19  15 W10G16    29.90S
WEST JORDAN    SUNNY     64  32  29 NW8       29.91F

$$

UTZ012>022-026-027-202300-

SOUTHERN/CENTRAL UTAH

CITY           SKY/WX    TMP DP  RH WIND       PRES   REMARKS
BLANDING       MOSUNNY   63  28  26 E8        29.97F
BRYCE CANYON   MOSUNNY   64   8  11 NW18G29   29.99F
CEDAR CITY     SUNNY     72  13  10 NW15G22   29.88F
DELTA          SUNNY     70  14  11 NE3       29.89F
HANKSVILLE     SUNNY     72  27  18 CALM      29.86F
MILFORD        SUNNY     74  19  12 N10G21    29.87F
MOAB/CYNLANDS  SUNNY     71  26  18 VRB5      29.84F
PRICE          PTSUNNY   70  17  13 W14G23    29.87F
ST GEORGE      CLEAR     84  21  10 SW13G20   29.79F

$$

REGIONAL REPORTS     COLORADO/ARIZONA

CITY           SKY/WX    TMP DP  RH WIND       PRES   REMARKS
CRAIG, CO      PTSUNNY   51  36  56 VRB3      29.95F
GRAND JUNCTION MOSUNNY   65  29  25 CALM      29.88F
RIFLE          PTSUNNY   60  31  33 N10       29.91S
MONTROSE       MOSUNNY   60  31  33 SW5       29.94F
CORTEZ         PTSUNNY   62  22  21 W13G25    29.93F
PAGE, AZ       MOSUNNY   81  15   8 N12G20    29.81F
GRAND CANYON   MOSUNNY   68  13  12 W16G33    29.98F
KINGMAN        SUNNY     82  12   7 SW9G26    29.85F
FLAGSTAFF      CLOUDY    59  17  19 NW12      30.01F

$$

REGIONAL REPORTS    NEVADA/IDAHO/WYOMING

CITY           SKY/WX    TMP DP  RH WIND       PRES   REMARKS
LAS VEGAS, NV  MOSUNNY   87  15   7 SE12G18   29.70F
ELY            SUNNY     69   0   6 NW8G21    29.94F
ELKO           SUNNY     71  15  11 W12G21    29.90F
POCATELLO, ID  SUNNY     66  23  19 W7        29.92F
BURLEY         SUNNY     67  27  22 W8        29.88F
EVANSTON, WY   MOSUNNY   58  17  20 NW16G24   29.95F
ROCK SPRINGS   PTSUNNY   55  23  28 NW14G23   29.91F
KEMMERER       SUNNY     57  18  21 W18G29    29.95F

$$


USA.gov is the U.S. government's official web portal to all federal, state and local government web resources and services.